Powrót do katalogu

COSMOS 2251 DEB

AktywnyLEO
NORAD 34304·DEBRIS·🇷🇺 Russia

Wystrzelony Jun 16, 1993 z Plesetsk Cosmodrome

Loading…

Następne Przeloty (najbliższe 24 godziny)

TLE

ŚwieżeSource: Space-Track

Epoka: Sep 14, 2026, 14:09 UTC

1 34304U 93036NA  26257.59000181  .00001507  00000-0  44862-3 0  9991
2 34304  74.0132 332.9345 0125387  43.5715  23.7304 14.39526395912641

Śledź COSMOS 2251 DEB w czasie rzeczywistym z AllMySat

Download on the App Store